Location: Eenumerhoogte
(53.3420°N, 6.7843°E)
Time: 11:07:10
(UTC+00:00)

Cosmos 1812 Rocket - Pass Details

Date: 15 May 2026
Orbit: 599 x 623 km, 82.5° (Epoch: 4 June)

Event Time Altitude Azimuth Distance (km) Brightness Sun altitude
Exits shadow 23:39:57 26° 227° (SW) 1,239 4.7 -17.6°
Maximum altitude 23:42:07 47° 287° (WNW) 831 4.3 -17.5°
Drops below altitude 10° 23:46:25 10° 2° (N) 2,007 7.5 -17.5°
Sets 23:48:45 0° 8° (N) 2,920 8.8 -17.5°
